Вернуться в каталог

LUCH DEB

АктивенGEO
NORAD 44582·DEBRIS·🇷🇺 Russia

Запущен Dec 16, 1994 с Baikonur Cosmodrome

Loading…

TLE

СвежийSource: Space-Track

Эпоха: Sep 14, 2026, 00:10 UTC

1 44582U 94082G   26257.00710311  .00000087  00000-0  00000-0 0  9996
2 44582  14.5825 353.3085 0017279 118.0009 255.8835  1.00688014 47142

Отслеживайте LUCH DEB в реальном времени с AllMySat

Download on the App Store